Bezoek ook deze websites:

Template documentation
and downloads

And another site




Warning: curl_setopt(): CURLOPT_FOLLOWLOCATION cannot be activated when an open_basedir is set in /home/w16454we/public_html/weather28/wu/wsWUstart.php on line 121

Select another period ( hide this area )

Eenheden Periode Custom range Directly to
Metrisch Engels Beide
Dagelijkse Wekelijkse Maandelijkse Jaarlijkse
use both date-selectors for a custom range
previous Dag
With this date

WeatherUnderground graphs for this period ( click here )


Dagelijkse Samenvatting Dinsdag 28 januari 2020
Tijd Temp. ( °C ) Dew pt. ( °C ) Wind ( km/h ) van Windvlaag ( km/h ) Luchtdruk ( hPa ) Humid.( % ) Rainrate ( cm )
Hoog7,1 5,1 20,9 ZZW ( 193/694 ) 32,2 995,5 90 4,80
Gemiddeld6,1 4,0 7,5 ZZW #24/93 15,0 993,1 87 3,50
Laag4,6 2,3 -   3,2 990,4 84 -
Dagelijkse Tabular details for Dinsdag 28 januari 2020
Tijd Temp. ( °C ) Dew pt. ( °C ) Wind ( km/h ) van Windvlaag ( km/h ) Luchtdruk ( hPa ) Humid.( % ) Rainrate ( cm )
00:04 6,2 4,2 11,1 ZZO 12,9 995,5 87 2,30
00:09 6,0 4,2 3,2 NW 9,7 995,5 88 3,30
00:14 5,9 4,1 4,7 ZW 9,7 995,5 88 3,80
00:19 5,9 4,2 7,9 Zuiden 9,7 995,5 89 4,30
00:24 5,9 4,2 3,2 Westen 11,3 995,5 89 4,30
00:29 6,0 4,3 4,7 ZW 9,7 995,5 89 4,30
00:34 5,9 4,1 3,2 Oosten 12,9 995,5 88 4,60
00:39 5,9 4,1 1,4 Zuiden 12,9 995,5 88 4,80
00:44 5,8 4,0 3,2 Zuiden 8,0 995,5 88 4,80
00:49 5,7 3,9   Kalm 3,2 995,5 88 4,60
00:54 5,6 3,8 3,2 Zuiden 8,0 995,5 88 4,30
00:59 5,6 3,8 1,4 ZZW 8,0 995,5 88 3,00
01:04 5,6 3,9 3,2 ZZW 8,0 995,5 89 2,30
01:09 5,6 3,9   Kalm 6,4 995,5 89 1,50
01:14 5,6 3,9 3,2 ZZW 6,4 995,5 89 0,80
01:19 5,7 4,0 1,4 ZW 6,4 995,1 89 0,80
01:24 5,7 4,0 4,7 ZZO 8,0 995,1 89 0,80
01:29 5,7 4,0 3,2 ZW 9,7 995,1 89 0,50
01:34 5,7 4,0 1,4 ZZO 9,7 995,1 89 0,50
01:39 5,7 4,0 3,2 ZZO 6,4 995,1 89 0,30
01:44 5,7 4,0 4,7 ZZO 11,3 994,8 89 0,30
01:49 5,7 4,0 1,4 ZW 6,4 994,8 89 0,30
01:54 5,6 3,9 9,7 ZZO 12,9 994,8 89 0,30
01:59 5,8 4,3 4,7 ZZW 9,7 994,8 90 0,30
02:04 5,8 4,3 6,4 ZZO 12,9 994,8 90 0,30
02:09 5,9 4,4 4,7 WZW 9,7 994,8 90 0,30
02:14 6,1 4,4 6,4 ZZW 9,7 994,5 89 0,30
02:19 6,2 4,5 3,2 ZZW 6,4 994,5 89 -
02:24 6,2 4,5 6,4 ZO 8,0 994,1 89 -
02:29 6,3 4,6 3,2 ZW 6,4 994,1 89 -
02:34 6,4 4,7 3,2 Zuiden 9,7 994,1 89 -
02:39 6,6 4,9 9,7 WZW 12,9 994,1 89 -
02:44 6,8 5,0 7,9 Oosten 16,1 994,1 88 -
02:49 6,9 5,1 7,9 ZW 14,5 993,8 88 -
02:54 7,0 5,0 7,9 Zuiden 19,3 993,8 87 -
02:59 7,1 4,9 9,7 ZZO 24,1 993,8 86 -
03:04 7,1 4,9 20,9 ZZO 20,9 993,8 86 -
03:09 7,1 4,9 17,7 Zuiden 17,7 993,8 86 -
03:14 7,1 4,9 7,9 ZW 19,3 993,8 86 -
03:19 7,0 4,8 7,9 ZZO 11,3 993,5 86 -
03:24 6,9 4,7 9,7 ZW 14,5 993,5 86 -
03:29 6,9 4,7 6,4 ZZW 14,5 993,5 86 -
03:34 6,8 4,6 4,7 ZZW 14,5 993,5 86 -
03:40 6,7 4,5 11,1 ZZW 12,9 993,1 86 -
03:45 6,7 4,5 4,7 ZZO 12,9 993,5 86 -
03:50 6,7 4,5 13,0 ZZW 14,5 993,1 86 -
03:55 6,6 4,4 6,4 ZZO 9,7 993,1 86 -
04:00 6,6 4,4 6,4 WZW 12,9 992,8 86 -
04:05 6,6 4,4 7,9 ZW 16,1 992,8 86 -
04:10 6,6 4,4 7,9 ZZW 11,3 992,8 86 -
04:15 6,7 4,5 4,7 ZZW 17,7 992,4 86 -
04:20 6,7 4,5 14,3 ZZW 14,5 992,4 86 -
04:25 6,7 4,5 16,3 ZO 16,1 992,1 86 -
04:30 6,7 4,5 6,4 ZZO 19,3 992,1 86 -
04:35 6,7 4,5 11,1 Zuiden 16,1 992,1 86 -
04:40 6,8 4,6 13,0 ZZW 17,7 991,8 86 -
04:45 6,8 4,6 4,7 Zuiden 14,5 991,8 86 -
04:50 6,9 4,7 9,7 ZZO 19,3 991,4 86 -
04:55 6,9 4,7 6,4 ZO 16,1 991,4 86 -
05:00 6,8 4,6 9,7 OZO 17,7 991,4 86 -
05:05 6,8 4,5 4,7 WNW 20,9 991,4 85 -
05:10 6,6 4,3 4,7 ZZW 19,3 991,1 85 -
05:15 6,5 4,2 7,9 Westen 24,1 991,1 85 -
05:20 6,5 4,2 7,9 ZZO 19,3 990,7 85 -
05:25 6,6 4,3 14,3 ZZW 19,3 990,7 85 -
05:30 6,6 4,1 13,0 Zuiden 29,0 990,4 84 -
05:35 6,7 4,2 9,7 ZZW 24,1 990,4 84 -
05:40 6,7 4,2 17,7 ZZO 20,9 990,4 84 -
05:45 6,7 4,2 16,3 Zuiden 20,9 990,4 84 -
05:50 6,8 4,3 14,3 ZW 20,9 990,7 84 -
05:55 6,7 4,2 7,9 ZZO 19,3 990,7 84 0,30
06:00 6,5 4,2 14,3 WNW 32,2 991,4 85 0,80
06:05 5,3 2,8 4,7 ZZW 19,3 991,4 84 1,50
06:10 4,9 2,8 9,7 Zuiden 22,5 991,1 86 1,50
06:15 4,8 2,7 6,4 Zuiden 19,3 991,4 86 1,50
06:20 4,8 2,7 3,2 WZW 17,7 991,4 86 1,50
06:25 4,8 2,8 1,4 WZW 17,7 991,4 87 1,80
06:30 4,8 2,8 9,7 ZZO 20,9 991,4 87 1,80
06:35 4,9 2,9 6,4 ZZW 12,9 991,4 87 1,80
06:40 5,0 2,9 1,4 ZO 14,5 991,4 86 1,80
06:45 5,0 2,9 7,9 WZW 14,5 991,4 86 1,80
06:50 5,2 3,1 6,4 ZW 22,5 991,4 86 1,80
06:55 5,2 3,1 7,9 ZZW 19,3 991,4 86 1,50
07:00 5,3 3,1 1,4 ZO 12,9 991,4 86 1,00
07:05 5,2 3,1 11,1 ZZW 17,7 991,4 86 0,50
07:10 5,3 3,1 13,0 Westen 16,1 991,8 86 0,30
07:15 5,3 3,1 13,0 ZZW 16,1 992,1 86 0,30
07:20 5,3 3,1 11,1 Zuiden 19,3 992,1 86 0,30
07:25 5,2 3,1 14,3 ZZW 14,5 991,8 86 -
07:30 5,0 2,9 3,2 NW 25,7 992,1 86 -
07:35 4,8 2,5 13,0 Zuiden 17,7 992,1 85 -
07:40 4,7 2,4 13,0 ZZO 17,7 992,1 85 -
07:45 4,6 2,3 9,7 ZZW 22,5 991,8 85 -
Dagelijkse Samenvatting Dinsdag 28 januari 2020
Tijd Temp. ( °C ) Dew pt. ( °C ) Wind ( km/h ) van Windvlaag ( km/h ) Luchtdruk ( hPa ) Humid.( % ) Rainrate ( cm )
Hoog7,1 5,1 20,9 ZZW ( 193/694 ) 32,2 995,5 90 4,80
Gemiddeld6,1 4,0 7,5 ZZW #24/93 15,0 993,1 87 3,50
Laag4,6 2,3 -   3,2 990,4 84 -
Dagelijkse Tabular details for Dinsdag 28 januari 2020
Tijd Temp. ( °C ) Dew pt. ( °C ) Wind ( km/h ) van Windvlaag ( km/h ) Luchtdruk ( hPa ) Humid.( % ) Rainrate ( cm )
00:04 6,2 4,2 11,1 ZZO 12,9 995,5 87 2,30
00:09 6,0 4,2 3,2 NW 9,7 995,5 88 3,30
00:14 5,9 4,1 4,7 ZW 9,7 995,5 88 3,80
00:19 5,9 4,2 7,9 Zuiden 9,7 995,5 89 4,30
00:24 5,9 4,2 3,2 Westen 11,3 995,5 89 4,30
00:29 6,0 4,3 4,7 ZW 9,7 995,5 89 4,30
00:34 5,9 4,1 3,2 Oosten 12,9 995,5 88 4,60
00:39 5,9 4,1 1,4 Zuiden 12,9 995,5 88 4,80
00:44 5,8 4,0 3,2 Zuiden 8,0 995,5 88 4,80
00:49 5,7 3,9   Kalm 3,2 995,5 88 4,60
00:54 5,6 3,8 3,2 Zuiden 8,0 995,5 88 4,30
00:59 5,6 3,8 1,4 ZZW 8,0 995,5 88 3,00
01:04 5,6 3,9 3,2 ZZW 8,0 995,5 89 2,30
01:09 5,6 3,9   Kalm 6,4 995,5 89 1,50
01:14 5,6 3,9 3,2 ZZW 6,4 995,5 89 0,80
01:19 5,7 4,0 1,4 ZW 6,4 995,1 89 0,80
01:24 5,7 4,0 4,7 ZZO 8,0 995,1 89 0,80
01:29 5,7 4,0 3,2 ZW 9,7 995,1 89 0,50
01:34 5,7 4,0 1,4 ZZO 9,7 995,1 89 0,50
01:39 5,7 4,0 3,2 ZZO 6,4 995,1 89 0,30
01:44 5,7 4,0 4,7 ZZO 11,3 994,8 89 0,30
01:49 5,7 4,0 1,4 ZW 6,4 994,8 89 0,30
01:54 5,6 3,9 9,7 ZZO 12,9 994,8 89 0,30
01:59 5,8 4,3 4,7 ZZW 9,7 994,8 90 0,30
02:04 5,8 4,3 6,4 ZZO 12,9 994,8 90 0,30
02:09 5,9 4,4 4,7 WZW 9,7 994,8 90 0,30
02:14 6,1 4,4 6,4 ZZW 9,7 994,5 89 0,30
02:19 6,2 4,5 3,2 ZZW 6,4 994,5 89 -
02:24 6,2 4,5 6,4 ZO 8,0 994,1 89 -
02:29 6,3 4,6 3,2 ZW 6,4 994,1 89 -
02:34 6,4 4,7 3,2 Zuiden 9,7 994,1 89 -
02:39 6,6 4,9 9,7 WZW 12,9 994,1 89 -
02:44 6,8 5,0 7,9 Oosten 16,1 994,1 88 -
02:49 6,9 5,1 7,9 ZW 14,5 993,8 88 -
02:54 7,0 5,0 7,9 Zuiden 19,3 993,8 87 -
02:59 7,1 4,9 9,7 ZZO 24,1 993,8 86 -
03:04 7,1 4,9 20,9 ZZO 20,9 993,8 86 -
03:09 7,1 4,9 17,7 Zuiden 17,7 993,8 86 -
03:14 7,1 4,9 7,9 ZW 19,3 993,8 86 -
03:19 7,0 4,8 7,9 ZZO 11,3 993,5 86 -
03:24 6,9 4,7 9,7 ZW 14,5 993,5 86 -
03:29 6,9 4,7 6,4 ZZW 14,5 993,5 86 -
03:34 6,8 4,6 4,7 ZZW 14,5 993,5 86 -
03:40 6,7 4,5 11,1 ZZW 12,9 993,1 86 -
03:45 6,7 4,5 4,7 ZZO 12,9 993,5 86 -
03:50 6,7 4,5 13,0 ZZW 14,5 993,1 86 -
03:55 6,6 4,4 6,4 ZZO 9,7 993,1 86 -
04:00 6,6 4,4 6,4 WZW 12,9 992,8 86 -
04:05 6,6 4,4 7,9 ZW 16,1 992,8 86 -
04:10 6,6 4,4 7,9 ZZW 11,3 992,8 86 -
04:15 6,7 4,5 4,7 ZZW 17,7 992,4 86 -
04:20 6,7 4,5 14,3 ZZW 14,5 992,4 86 -
04:25 6,7 4,5 16,3 ZO 16,1 992,1 86 -
04:30 6,7 4,5 6,4 ZZO 19,3 992,1 86 -
04:35 6,7 4,5 11,1 Zuiden 16,1 992,1 86 -
04:40 6,8 4,6 13,0 ZZW 17,7 991,8 86 -
04:45 6,8 4,6 4,7 Zuiden 14,5 991,8 86 -
04:50 6,9 4,7 9,7 ZZO 19,3 991,4 86 -
04:55 6,9 4,7 6,4 ZO 16,1 991,4 86 -
05:00 6,8 4,6 9,7 OZO 17,7 991,4 86 -
05:05 6,8 4,5 4,7 WNW 20,9 991,4 85 -
05:10 6,6 4,3 4,7 ZZW 19,3 991,1 85 -
05:15 6,5 4,2 7,9 Westen 24,1 991,1 85 -
05:20 6,5 4,2 7,9 ZZO 19,3 990,7 85 -
05:25 6,6 4,3 14,3 ZZW 19,3 990,7 85 -
05:30 6,6 4,1 13,0 Zuiden 29,0 990,4 84 -
05:35 6,7 4,2 9,7 ZZW 24,1 990,4 84 -
05:40 6,7 4,2 17,7 ZZO 20,9 990,4 84 -
05:45 6,7 4,2 16,3 Zuiden 20,9 990,4 84 -
05:50 6,8 4,3 14,3 ZW 20,9 990,7 84 -
05:55 6,7 4,2 7,9 ZZO 19,3 990,7 84 0,30
06:00 6,5 4,2 14,3 WNW 32,2 991,4 85 0,80
06:05 5,3 2,8 4,7 ZZW 19,3 991,4 84 1,50
06:10 4,9 2,8 9,7 Zuiden 22,5 991,1 86 1,50
06:15 4,8 2,7 6,4 Zuiden 19,3 991,4 86 1,50
06:20 4,8 2,7 3,2 WZW 17,7 991,4 86 1,50
06:25 4,8 2,8 1,4 WZW 17,7 991,4 87 1,80
06:30 4,8 2,8 9,7 ZZO 20,9 991,4 87 1,80
06:35 4,9 2,9 6,4 ZZW 12,9 991,4 87 1,80
06:40 5,0 2,9 1,4 ZO 14,5 991,4 86 1,80
06:45 5,0 2,9 7,9 WZW 14,5 991,4 86 1,80
06:50 5,2 3,1 6,4 ZW 22,5 991,4 86 1,80
06:55 5,2 3,1 7,9 ZZW 19,3 991,4 86 1,50
07:00 5,3 3,1 1,4 ZO 12,9 991,4 86 1,00
07:05 5,2 3,1 11,1 ZZW 17,7 991,4 86 0,50
07:10 5,3 3,1 13,0 Westen 16,1 991,8 86 0,30
07:15 5,3 3,1 13,0 ZZW 16,1 992,1 86 0,30
07:20 5,3 3,1 11,1 Zuiden 19,3 992,1 86 0,30
07:25 5,2 3,1 14,3 ZZW 14,5 991,8 86 -
07:30 5,0 2,9 3,2 NW 25,7 992,1 86 -
07:35 4,8 2,5 13,0 Zuiden 17,7 992,1 85 -
07:40 4,7 2,4 13,0 ZZO 17,7 992,1 85 -
07:45 4,6 2,3 9,7 ZZW 22,5 991,8 85 -

Download your copy of this data-set  here

Our weather-data as stored at Weather Underground. Script ontwikkeld door Jim McMurry. Aangepast voor de template door Leuven-Template.eu

U vindt ons ook hier:

Het Weer Aktueel

UK Metoffice

WeatherCloud

Weather Underground

AWEKAS

HAMweather, WeatherForYou, PWS Weather

Apparatuur in gebruik:

Weerstation
Davis Vantage Vue

Weerprogramma
Meteobridge

Davis Vantage Vue

Meteobridge